ヘリン-ローマン-アルー第1彗星

117P/Helin-Roman-Alu 1 (2022)

English version
Home page
Updated on July 31, 2021

---------------------------------------------------------------------

・ プロフィール

・ 写真集

・ 軌道要素

Epoch 2022 June 30.0 TT = JDT 2459760.5
T 2022 July 7.80469 TT                                  Rudenko
q   3.0396370            (2000.0)            P               Q
n   0.11947667     Peri.  222.94608     +0.19757466     +0.97169659
a   4.0826984      Node    58.84181     -0.85339646     +0.23549620
e   0.2554833      Incl.    8.70398     -0.48236784     -0.01863515
P   8.25
From 4927 observations 1996 Apr. 21-2021 Mar. 7, mean residual 0".8.
     Nongravitational parameters A1 = +0.32, A2 = +0.0441.

・ 星図

・ 光度変化

        m1 = 3.0 + 5 logΔ + 18.0 log r

---------------------------------------------------------------------

軌道要素はM.P.E.C. 2021-F20に掲載されたものです。
星図はステラナビゲータ Ver.10 (アストロアーツ) で作成したものです。
光度グラフはComet for Windowsで作成したものです。

---------------------------------------------------------------------

Copyright(C) Seiichi Yoshida (comet@aerith.net). All rights reserved.